Location: Tr�vern
(48.0333°N, 4.6000°W)
Time: 01:33:23
(UTC+00:00)

COSMOS 2455 - Pass Details

Date: 14 July 2020
Orbit: 898 x 911 km, 67.1° (Epoch: 11 August)

Event Time Altitude Azimuth Distance (km) Brightness Sun altitude
Rises 23:57:36 0° 317° (NW) 3,552 6.8 -20.1°
Reaches altitude 10° 00:00:35 10° 304° (WNW) 2,605 5.8 -20.1°
Maximum altitude 00:05:13 23° 253° (WSW) 1,817 4.3 -20.2°
Enters shadow 00:07:04 20° 228° (SW) 1,962 4.3 -20.2°
